Regional Weather Roundup
Issued by NWS

Home | Current Version | Previous Version | Text Only | Print | Product List | Glossary On
Versions: 1 2 3 4 5 6 7 8 9 10 11 12 13 14 15 16 17 18 19 20 21 22 23 24 25 26 27 28 29 30 31 32 33 34 35 36 37 38 39 40 41 42 43 44 45 46 47 48 49 50
763
ASUS44 KMEG 290410
RWRTN
TENNESSEE HOURLY STATE WEATHER ROUNDUP
NATIONAL WEATHER SERVICE MEMPHIS TN
1100 PM CDT FRI APR 28 2017

TNZ002-004-019-021-049-052-054-088>092-290500-
WEST TENNESSEE

CITY           SKY/WX    TMP DP  RH WIND       PRES   REMARKS
MEMPHIS INTL   MOCLDY    79  70  74 S18       29.85R
NWS MEMPHIS      N/A     79 N/A N/A MISG        N/A
JACKSON        CLEAR     79  69  71 S16       29.87S
DYERSBURG      CLEAR     78  70  76 S9G17     29.83S
SOMERVILLE     MOCLDY    79  70  73 S10G20    29.86S
UNION CITY     PTCLDY    77  70  78 S18G25    29.79F
BOLIVAR        CLOUDY    79  68  69 S13G20    29.88S
HUNTINGDON     MOCLDY    77  70  78 S14       29.84F
LEXINGTON      CLOUDY    77  68  73 S8        29.90S
SAVANNAH       CLOUDY    77  70  78 S10       29.92R
$$

TNZ008-025-027-028-033-062-065-066-290500-
NORTH MIDDLE TENNESSEE

CITY           SKY/WX    TMP DP  RH WIND       PRES   REMARKS
NASHVILLE      PTCLDY    78  67  68 S14       29.92F
PORTLAND       CLEAR     75  68  78 S14G22    29.89F
CLARKSVILLE    CLEAR     77  67  71 S17G25    29.84F
SMYRNA         CLEAR     77  68  73 S10       29.94R
COOKEVILLE     CLEAR     75  64  69 S12G18    29.97S
GALLATIN       PTCLDY    77  66  69 S6G14     29.94F
CROSSVILLE     CLEAR     73  63  70 S8G21     30.05F
$$

TNZ061-075-076-078-094-096-097-290500-
SOUTH MIDDLE TENNESSEE

CITY           SKY/WX    TMP DP  RH WIND       PRES   REMARKS
FAYETTEVILLE   CLOUDY    75  68  78 S12       30.01R
TULLAHOMA      CLEAR     73  64  73 S10       30.01S
WINCHESTER     CLEAR     75  66  73 S6        30.02S
MCMINNVILLE    CLEAR     79  66  65 S6        30.00S
COLUMBIA       CLEAR     77  77 100 S13       29.93S
SHELBYVILLE    CLEAR     77  70  78 S10       29.98S
$$

TNZ017-018-042-046-047-290500-
NORTHEAST TENNESSEE

CITY           SKY/WX    TMP DP  RH WIND       PRES   REMARKS
TRI CITIES     CLEAR     65  61  87 CALM      30.07F
ELIZABETHTON   PTCLDY    64  61  88 CALM      30.08F
$$

TNZ012-013-036-069-073-074-290500-
CENTRAL EAST TENNESSEE

CITY           SKY/WX    TMP DP  RH WIND       PRES   REMARKS
KNOXVILLE      CLEAR     73  63  70 S8        30.02S
OAK RIDGE      MOCLDY    77  63  61 VRB5      30.04S
DOWNTOWN KNOXV PTCLDY    64  64 100 CALM      30.02F FOG
GATLINBURG     CLEAR     66  63  88 CALM      30.03S
MORRISTOWN     PTCLDY    70  66  88 CALM      30.03F
JACKSBORO      MOCLDY    77  64  65 S9G17     30.04F
$$

TNZ083-085-099-290500-
SOUTHEAST TENNESSEE

CITY           SKY/WX    TMP DP  RH WIND       PRES   REMARKS
CHATTANOOGA    MOCLDY    74  66  76 CALM      30.05R
$$

SKY/WX REPORTED AS FAIR MEANS FEW OR NO CLOUDS BELOW
12 THOUSAND FEET.





USA.gov is the U.S. government's official web portal to all federal, state and local government web resources and services.